[[{"header":{"parameterUnit":"m.s-1","parameterCategory":1,"la1":30.2992,"la2":30.254,"lo1":-89.0895,"lo2":-89.0443,"dy":0.0025,"dx":0.0025,"nx":19,"ny":19,"refTime":"2026-04-07T09:00:00:Z","depth":0,"parameterNumber":2,"parameterNumberName":"U-component_of_WINDS"},"data":[0,0,0,-2.8254,-2.826,-2.8527,-2.8528,-2.8883,-2.8886,0,0,0,0,0,0,0,0,0,0,0,-2.8183,-2.8186,-2.8254,-2.8261,-2.8527,-2.8528,-2.8883,-2.8886,0,0,0,0,0,0,0,0,0,0,0,-2.8182,-2.8185,-2.8189,-2.8262,-2.8527,-2.8528,-2.8882,-2.8676,0,0,0,0,0,0,0,0,0,0,-2.8414,-2.8357,-2.8185,-2.8189,-2.8264,-2.8527,-2.8529,-2.8666,-2.8689,-2.8768,0,-2.884,0,-2.8869,-2.8911,-2.8912,0,0,0,-2.8255,-2.8338,-2.8402,-2.8189,-2.8266,-2.8526,-2.8405,-2.8678,-2.8704,-2.8798,-2.8845,-2.8858,-2.8875,-2.8913,-2.8915,-2.939,-2.9393,0,0,-2.8241,-2.8236,-2.8384,-2.8419,-2.8378,-2.8397,-2.8414,-2.8694,-2.8745,-2.8846,-2.8866,-2.8881,-2.8916,-2.8919,-2.9388,-2.9391,0,0,0,-2.8202,-2.8226,-2.8283,-2.8405,-2.8452,-2.8405,-2.8424,-2.8732,-2.8751,-2.887,-2.8885,-2.8918,-2.8922,-2.9385,-2.9389,-2.951,0,0,0,-2.8193,-2.8204,-2.8277,-2.8277,-2.8447,-2.8596,-2.8457,-2.8732,-2.8764,-2.8883,-2.8918,-2.8926,-2.9383,-2.9387,-2.9501,-2.957,0,0,0,-2.8163,-2.82,-2.8241,-2.8276,-2.8391,-2.8591,-2.8626,-2.8739,-2.8773,-2.8913,-2.8927,-2.9381,-2.9386,-2.9493,-2.9557,-2.9697,0,0,0,-2.8131,-2.8345,-2.8243,-2.8487,-2.8389,-2.8662,-2.8624,-2.8828,-2.8962,-2.892,-2.9383,-2.9389,-2.949,-2.9548,-2.9688,-2.9817,-2.9869,0,0,-2.8399,-2.8377,-2.8521,-2.8437,-2.8728,-2.8622,-2.8931,-2.9057,-2.9074,-2.9284,-2.9296,-2.9504,-2.9556,-2.9695,-3.0154,-3.0195,0,0,0,-2.8604,-2.8708,-2.8786,-2.8912,-2.9013,-2.9106,-2.9184,-2.9231,-2.9409,-2.9181,-2.959,-2.9621,-2.9702,-2.9765,-2.98,-2.9872,-2.9416,-2.9415,-2.9415,-2.8981,-2.8989,-2.9229,-2.9269,-2.9392,-2.947,-2.9571,-2.9647,-2.962,-2.9716,-2.9781,-3.0059,-3.0131,-3.0158,-3.0233,-2.9845,-2.9846,-2.9846,-2.9847,-2.9377,-2.9528,-2.9484,-2.9702,-2.9709,-2.9891,-2.9974,-2.9948,-3.012,-3.0011,-3.0083,-2.9968,-3.0203,-3.0269,-2.9856,-2.9854,-2.9853,-2.9852,-2.9851,-2.963,-2.9704,-2.9754,-2.9937,-3.0077,-3.0109,-3.0276,-3.0275,-3.0276,-3.0347,-3.0418,-3.0416,-3.0418,-3.0379,-3.038,-3.0381,-3.0382,-3.0383,-3.0384,-2.9874,-2.9927,-3.0068,-3.0191,-3.0271,-3.0377,-3.0454,-3.0534,-3.0623,-3.061,-3.061,-3.0576,-3.0222,-3.0136,-3.0399,-3.0396,-3.0394,-3.0393,-3.0392,-3.0284,-3.019,-3.0408,-3.0489,-3.0632,-3.0772,-3.0766,-3.0928,-3.0993,-3.1075,-3.1023,-3.076,-3.0739,-3.0711,-3.064,-3.1018,-3.1018,-3.1018,-3.1018,-3.0501,-3.0488,-3.0711,-3.084,-3.0965,-3.0982,-3.1229,-3.1289,-3.1338,-3.1379,-3.1322,-3.1226,-3.1197,-3.1194,-3.1155,-3.109,-3.1574,-3.1574,-3.1575,-3.0756,-3.0754,-3.0966,-3.101,-3.1121,-3.1216,-3.1449,-3.1599,-3.1634,-3.1597,-3.1412,-3.1389,-3.1233,-3.1181,-3.1148,-3.1088,-3.0968,0,0]},{"header":{"parameterUnit":"m.s-1","parameterCategory":1,"la1":30.2992,"la2":30.254,"lo1":-89.0895,"lo2":-89.0443,"dy":0.0025,"dx":0.0025,"nx":19,"ny":19,"refTime":"2026-04-07T09:00:00:Z","depth":0,"parameterNumber":3,"parameterNumberName":"V-component_of_WINDS"},"data":[0,0,0,-4.6357,-4.636,-4.6482,-4.6482,-4.6652,-4.6654,0,0,0,0,0,0,0,0,0,0,0,-4.6333,-4.6335,-4.6357,-4.6361,-4.6482,-4.6482,-4.6652,-4.6654,0,0,0,0,0,0,0,0,0,0,0,-4.6333,-4.6335,-4.6337,-4.6361,-4.6482,-4.6482,-4.6651,-4.6554,0,0,0,0,0,0,0,0,0,0,-4.6433,-4.6423,-4.6334,-4.6337,-4.6362,-4.6482,-4.6482,-4.6549,-4.656,-4.6604,0,-4.6649,0,-4.6655,-4.6666,-4.6667,0,0,0,-4.6351,-4.6414,-4.6437,-4.6337,-4.6363,-4.6482,-4.6424,-4.6555,-4.6567,-4.6619,-4.6652,-4.6657,-4.6657,-4.6667,-4.6668,-4.6961,-4.6963,0,0,-4.6344,-4.6361,-4.6428,-4.6445,-4.6431,-4.6421,-4.6428,-4.6562,-4.6598,-4.6652,-4.6661,-4.666,-4.6669,-4.667,-4.696,-4.6962,0,0,0,-4.6332,-4.6357,-4.6375,-4.6439,-4.646,-4.6424,-4.6433,-4.6592,-4.6597,-4.6663,-4.6662,-4.667,-4.6672,-4.6958,-4.696,-4.7067,0,0,0,-4.6327,-4.6349,-4.6373,-4.6384,-4.6458,-4.6528,-4.646,-4.6587,-4.6602,-4.6661,-4.667,-4.6674,-4.6956,-4.6959,-4.706,-4.7115,0,0,0,-4.6321,-4.6348,-4.6371,-4.6385,-4.6438,-4.6526,-4.6538,-4.659,-4.6602,-4.6667,-4.6674,-4.6954,-4.6959,-4.7054,-4.7104,-4.7196,0,0,0,-4.6319,-4.6464,-4.6373,-4.6533,-4.6437,-4.6592,-4.6537,-4.665,-4.6719,-4.6671,-4.6956,-4.696,-4.7052,-4.7098,-4.719,-4.7277,-4.7315,0,0,-4.6511,-4.6487,-4.658,-4.6502,-4.6677,-4.6572,-4.6761,-4.6807,-4.6796,-4.6906,-4.6913,-4.7063,-4.7103,-4.7195,-4.7525,-4.7555,0,0,0,-4.6646,-4.6713,-4.6755,-4.6823,-4.6862,-4.6899,-4.6914,-4.6931,-4.7023,-4.6858,-4.712,-4.7144,-4.7197,-4.7238,-4.7264,-4.7307,-4.698,-4.698,-4.6979,-4.694,-4.692,-4.7072,-4.7066,-4.7131,-4.7145,-4.7195,-4.7219,-4.7179,-4.7241,-4.7273,-4.7476,-4.7525,-4.7544,-4.759,-4.7318,-4.7319,-4.7319,-4.7319,-4.7218,-4.7309,-4.7252,-4.7378,-4.7355,-4.746,-4.7477,-4.7445,-4.7537,-4.745,-4.7496,-4.7402,-4.7578,-4.7617,-4.7327,-4.7326,-4.7325,-4.7324,-4.7323,-4.7408,-4.7448,-4.7467,-4.756,-4.7634,-4.7621,-4.7713,-4.7688,-4.7664,-4.7709,-4.774,-4.7738,-4.7732,-4.7726,-4.7727,-4.7727,-4.7728,-4.7728,-4.7729,-4.7598,-4.7616,-4.7697,-4.775,-4.7789,-4.7836,-4.785,-4.7886,-4.7919,-4.7894,-4.7894,-4.7846,-4.76,-4.7538,-4.774,-4.7738,-4.7736,-4.7735,-4.7735,-4.7886,-4.7817,-4.7943,-4.7982,-4.8041,-4.8114,-4.8081,-4.8157,-4.8183,-4.8228,-4.817,-4.7993,-4.7966,-4.7946,-4.7894,-4.8175,-4.8175,-4.8175,-4.8176,-4.8047,-4.8031,-4.8153,-4.8217,-4.8276,-4.8258,-4.8397,-4.8408,-4.8408,-4.8422,-4.8377,-4.8307,-4.8287,-4.8272,-4.8244,-4.8196,-4.8548,-4.8548,-4.8549,-4.8222,-4.8211,-4.8336,-4.8337,-4.838,-4.8417,-4.8547,-4.8619,-4.8604,-4.8563,-4.8432,-4.8416,-4.8303,-4.8267,-4.8224,-4.8181,-4.8091,0,0]}]]